[[{"header":{"parameterUnit":"m.s-1","parameterCategory":1,"la1":30.2992,"la2":30.254,"lo1":-89.0895,"lo2":-89.0443,"dy":0.0025,"dx":0.0025,"nx":19,"ny":19,"refTime":"2026-03-22T09:00:00:Z","depth":0,"parameterNumber":2,"parameterNumberName":"U-component_of_WINDS"},"data":[0,0,0,1.2108,1.2109,1.2159,1.2159,1.2226,1.2226,0,0,0,0,0,0,0,0,0,0,0,1.2093,1.2093,1.2108,1.2109,1.2159,1.2159,1.2226,1.2226,0,0,0,0,0,0,0,0,0,0,0,1.2093,1.2093,1.2094,1.2109,1.2158,1.2159,1.2226,1.2187,0,0,0,0,0,0,0,0,0,0,1.2139,1.2124,1.2093,1.2094,1.2109,1.2158,1.2159,1.2185,1.219,1.2204,0,1.2215,0,1.2222,1.2231,1.2231,0,0,0,1.2109,1.212,1.2134,1.2094,1.211,1.2158,1.2136,1.2188,1.2193,1.221,1.2216,1.2219,1.2223,1.2231,1.2232,1.2311,1.2312,0,0,1.2106,1.2102,1.2131,1.2137,1.2127,1.2135,1.2138,1.2191,1.2198,1.2216,1.222,1.2224,1.2232,1.2232,1.2311,1.2311,0,0,0,1.2098,1.21,1.2112,1.2134,1.2143,1.2136,1.214,1.2195,1.22,1.2221,1.2225,1.2232,1.2233,1.2311,1.2311,1.2324,0,0,0,1.2097,1.2095,1.2111,1.2109,1.2142,1.2169,1.2143,1.2196,1.2202,1.2225,1.2232,1.2234,1.231,1.2311,1.2323,1.2331,0,0,0,1.209,1.2094,1.2101,1.2108,1.2129,1.2169,1.2176,1.2197,1.2205,1.2231,1.2234,1.231,1.2311,1.2322,1.2329,1.2351,0,0,0,1.2081,1.2111,1.2101,1.2137,1.2129,1.2176,1.2176,1.2211,1.2235,1.2233,1.231,1.2311,1.2321,1.2328,1.235,1.2369,1.2377,0,0,1.2116,1.2115,1.2137,1.213,1.2177,1.2169,1.2219,1.2246,1.2253,1.2292,1.2294,1.2323,1.2329,1.2351,1.2419,1.2425,0,0,0,1.2147,1.2162,1.2176,1.2199,1.222,1.224,1.226,1.2271,1.2305,1.2271,1.2337,1.2341,1.2354,1.2364,1.2369,1.2381,1.2315,1.2315,1.2315,1.219,1.2198,1.2235,1.2251,1.2273,1.2295,1.2315,1.2334,1.2334,1.2351,1.2362,1.2402,1.2413,1.2416,1.2429,1.2372,1.2373,1.2373,1.2373,1.2243,1.2267,1.227,1.2307,1.2317,1.235,1.2374,1.2374,1.2407,1.2393,1.2405,1.239,1.2422,1.2434,1.2374,1.2374,1.2373,1.2373,1.2373,1.2272,1.2285,1.2298,1.2334,1.2362,1.2377,1.241,1.2417,1.2425,1.2437,1.2452,1.2451,1.2453,1.2444,1.2444,1.2444,1.2444,1.2444,1.2444,1.2296,1.2311,1.2336,1.2364,1.2381,1.2406,1.2431,1.2449,1.2472,1.2475,1.2475,1.2477,1.2424,1.2411,1.2447,1.2446,1.2446,1.2446,1.2445,1.2347,1.2338,1.2376,1.2394,1.243,1.2459,1.2469,1.2507,1.2523,1.254,1.2539,1.2499,1.2498,1.2494,1.2483,1.2536,1.2536,1.2536,1.2536,1.2371,1.2372,1.2415,1.2444,1.2473,1.2488,1.2535,1.2557,1.2578,1.259,1.2584,1.257,1.2566,1.2568,1.2563,1.2553,1.2622,1.2622,1.2622,1.2403,1.2408,1.2445,1.2465,1.2495,1.2521,1.2567,1.2602,1.2624,1.2626,1.26,1.2596,1.2574,1.2567,1.2566,1.2557,1.2539,0,0]},{"header":{"parameterUnit":"m.s-1","parameterCategory":1,"la1":30.2992,"la2":30.254,"lo1":-89.0895,"lo2":-89.0443,"dy":0.0025,"dx":0.0025,"nx":19,"ny":19,"refTime":"2026-03-22T09:00:00:Z","depth":0,"parameterNumber":3,"parameterNumberName":"V-component_of_WINDS"},"data":[0,0,0,-0.8761,-0.8759,-0.867,-0.867,-0.8555,-0.8554,0,0,0,0,0,0,0,0,0,0,0,-0.8788,-0.8787,-0.8761,-0.8759,-0.867,-0.867,-0.8556,-0.8554,0,0,0,0,0,0,0,0,0,0,0,-0.8788,-0.8788,-0.8787,-0.8759,-0.867,-0.867,-0.8556,-0.8623,0,0,0,0,0,0,0,0,0,0,-0.871,-0.8735,-0.8788,-0.8787,-0.8758,-0.867,-0.867,-0.8626,-0.8619,-0.8596,0,-0.8576,0,-0.8564,-0.8547,-0.8546,0,0,0,-0.8758,-0.8741,-0.8717,-0.8786,-0.8757,-0.867,-0.871,-0.8622,-0.8614,-0.8586,-0.8575,-0.857,-0.8562,-0.8546,-0.8546,-0.8419,-0.8418,0,0,-0.8763,-0.8772,-0.8723,-0.8712,-0.8726,-0.8713,-0.8707,-0.8617,-0.8605,-0.8574,-0.8568,-0.856,-0.8545,-0.8544,-0.8419,-0.8419,0,0,0,-0.8778,-0.8775,-0.8753,-0.8716,-0.87,-0.871,-0.8704,-0.8609,-0.8601,-0.8567,-0.8559,-0.8545,-0.8543,-0.842,-0.8419,-0.84,0,0,0,-0.8781,-0.8784,-0.8756,-0.876,-0.8702,-0.8653,-0.8698,-0.8607,-0.8597,-0.8559,-0.8545,-0.8542,-0.8421,-0.8419,-0.8402,-0.8389,0,0,0,-0.8794,-0.8785,-0.8773,-0.876,-0.8723,-0.8655,-0.8642,-0.8605,-0.8592,-0.8546,-0.8542,-0.8421,-0.842,-0.8404,-0.8392,-0.8359,0,0,0,-0.8809,-0.8756,-0.8773,-0.871,-0.8723,-0.8644,-0.8642,-0.8582,-0.8541,-0.8544,-0.842,-0.8419,-0.8404,-0.8394,-0.8361,-0.8333,-0.8322,0,0,-0.8746,-0.8749,-0.8711,-0.8723,-0.8644,-0.8657,-0.8574,-0.8528,-0.8515,-0.8451,-0.8448,-0.8401,-0.8392,-0.836,-0.8259,-0.8251,0,0,0,-0.8694,-0.8667,-0.8644,-0.8606,-0.8571,-0.8539,-0.8505,-0.8488,-0.8434,-0.8484,-0.838,-0.8375,-0.8355,-0.8341,-0.8334,-0.8317,-0.8413,-0.8413,-0.8414,-0.8616,-0.8604,-0.8542,-0.852,-0.8483,-0.845,-0.8419,-0.839,-0.8387,-0.8364,-0.8344,-0.8285,-0.8269,-0.8263,-0.8246,-0.8329,-0.8329,-0.8329,-0.8329,-0.8523,-0.8483,-0.8484,-0.8423,-0.8411,-0.836,-0.8326,-0.8327,-0.8277,-0.8298,-0.828,-0.8303,-0.8255,-0.8239,-0.8327,-0.8327,-0.8327,-0.8328,-0.8328,-0.847,-0.8449,-0.8431,-0.8376,-0.8335,-0.8315,-0.8268,-0.8259,-0.8249,-0.8232,-0.8211,-0.8211,-0.821,-0.8223,-0.8223,-0.8222,-0.8222,-0.8222,-0.8222,-0.8422,-0.8402,-0.8365,-0.8324,-0.8299,-0.8266,-0.8233,-0.8208,-0.8179,-0.8175,-0.8175,-0.8176,-0.8252,-0.8272,-0.8219,-0.8219,-0.822,-0.822,-0.822,-0.8331,-0.8351,-0.8292,-0.8268,-0.8221,-0.8181,-0.8171,-0.8122,-0.81,-0.8078,-0.8083,-0.8141,-0.8142,-0.8148,-0.8164,-0.8085,-0.8085,-0.8085,-0.8085,-0.8287,-0.8287,-0.8226,-0.8188,-0.8149,-0.8135,-0.807,-0.8045,-0.8022,-0.8008,-0.8018,-0.8039,-0.8045,-0.8042,-0.805,-0.8065,-0.7963,-0.7963,-0.7963,-0.823,-0.8227,-0.8173,-0.8152,-0.8115,-0.8083,-0.8022,-0.7978,-0.7956,-0.7958,-0.7997,-0.8002,-0.8035,-0.8047,-0.8048,-0.806,-0.8087,0,0]}]]